Location: Zagreb
(45.8000°N, 16.0000°E)
Time: 13:54:36
(UTC+02:00)

Vanguard 1 - Pass Details

Date: 09 August 2022
Orbit: 649 x 3832 km, 34.2° (Epoch: 25 September)

Event Time Altitude Azimuth Distance (km) Brightness Sun altitude
Rises 10:03:59 0° 274° (W) 7,497 14.1 42.4°
Reaches altitude 10° 10:08:56 10° 270° (W) 6,700 14.0 43.2°
Maximum altitude 10:30:37 51° 204° (SSW) 4,316 14.0 46.5°
Drops below altitude 10° 10:48:51 10° 135° (SE) 5,716 14.9 49.2°
Sets 10:52:41 0° 130° (SE) 6,379 14.9 49.7°
